Location: Newark
(48.3453°N, 0.5589°E)
Time: 17:03:07
(UTC+00:00)

A-11 Canister half - Pass Details

Date: 08 December 2019
Orbit: 1516 x 1683 km, 47.2° (Epoch: 20 January)

Event Time Altitude Azimuth Distance (km) Brightness Sun altitude
Rises 19:03:36 0° 291° (WNW) 4,898 12.6 -28.9°
Reaches altitude 10° 19:07:01 10° 283° (WNW) 3,924 12.0 -29.5°
Maximum altitude 19:15:56 37° 221° (SW) 2,397 10.2 -30.9°
Enters shadow 19:24:13 12° 161° (SSE) 3,757 10.8 -32.3°
Drops below altitude 10° 19:24:53 10° 159° (SSE) 3,933 - -32.4°
Sets 19:28:20 0° 151° (SSE) 4,909 - -33.0°
